User: anonymous   Login
Location: Fort Wayne
(41.1310°N, 85.1290°W)
Time: 02:20:23
(UTC-04:00)
Language:

Cosmos 1980 - Orbit

View from above orbital plane
View from above orbital plane
View from above satellite
View from above satellite

Ground track
Ground track

The orbit data is extracted from the following two-line orbital elements,

1 19649U 88102A   15115.51395712 -.00000015  00000-0  16898-4 0  9997
2 19649 071.0006 270.5670 0003453 046.0174 314.1233 14.14605638363747
Epoch (UTC): 25 April 2015 12:20:05
Eccentricity: 0.0003453
inclination: 71.0006°
perigee height: 841 km
apogee height: 846 km
right ascension of ascending node: 270.5670°
argument of perigee: 46.0174°
revolutions per day: 14.14605638
mean anomaly at epoch: 314.1233°
orbit number at epoch: 36374

The dashed part of the orbit path shows where the satellite is in the earth's shadow,  

DLR